map of HAN home
HAN - Airport
Location
City:  Hanoi, Vietnam
Name:Noi Bai International Airport
ICAO:VVNB
IATA:HAN

Details
Type:Airport (Aerodrome, Airfield)
Use:Public/Civil, Military, International (customs port of entry)
Latitude:2113'16"N (21.221192)
Longitude:10548'26"E (105.807178)
Datum:WGS 1984
Elevation:39 ft (12 m)
Variation:1.51W (WMM2015 magnetic declination)
-0.02 annual change
Runways:2
Longest:12466 × 148 ft (3800 × 45 m), paved

Time
Time Zone:UTC+7
Local Time:

Weather
METAR:VVNB 220430Z 04008KT 010V180 CAVOK 18/07 Q1026 NOSIG
TAF:VVNB 212300Z 2200/2224 02006KT 9999 SCT030 BKN060

Related Locations
Nearby:
Farthest:IQQ: 12184 mi / 19608 km
Iquique [Diego Aracena Intl], TA, CL

Find:

   beyond  
but within

Other Information
Maps:
NOTAMs:
Links:
Sources:

  
  • flag of Vietnam
  

Sectional Chart

Flight Planning
at skyvector.com

Satellite Image

Google Maps Satellite view

 

Copyright © 2004-2019 Karl L. Swartz. All rights reserved.
The Great Circle Mapper name and logo are trademarks of the Great Circle Mapper.
All other trademarks mentioned herein belong to their respective owners.
Please see credits for attibutions and further copyright information.

  Follow gcmap on Facebook Follow gcmap on Twitter Follow gcmap on Google+ GCmap on LinkedIn

hCard Microformat

Geo Microformat